Temperature
20 20 20 20 20 20 20 20 20 20 20 20 20 20 19 19 19 19 19 19 19 19 18 18 18 18 18 18 18 18 18 18 18 18 17 17 17 17 17 17 17 17 17
21 21 20 20 20 20 20 19 19 19 19 19 19 19 19 19 19 19 19 19 19 18 18 18 18 18 18 18 18 17 17 18 18 18 17 17 17 17 17 17 17 17 17
22 21 20 20 20 20 20 19 19 19 19 19 19 19 19 19 19 19 19 19 18 18 18 18 18 18 18 18 18 17 17 17 17 17 17 17 17 17 17 17 17 17 17
22 21 21 20 20 20 20 19 19 19 19 19 19 19 19 19 19 18 19 19 18 18 18 18 18 18 18 17 17 17 17 17 17 17 17 17 17 17 17 17 17 17 17
22 21 21 20 20 20 20 19 19 19 19 19 19 18 19 18 18 18 19 18 18 18 18 18 18 18 17 17 17 17 17 17 17 17 17 17 17 17 17 17 17 17 17
22 21 21 21 20 20 20 19 19 19 19 19 19 18 18 18 18 18 18 18 18 18 18 18 18 18 17 17 17 17 17 17 17 17 17 17 17 17 17 17 17 17 17
22 21 21 21 21 20 20 19 19 19 19 19 19 18 18 18 18 18 18 18 18 18 18 18 18 18 17 17 17 17 17 17 17 17 17 17 17 17 17 17 17 17 17
22 21 21 21 21 20 20 20 19 19 19 19 18 18 18 18 18 18 18 18 18 18 18 18 18 18 17 17 17 17 17 17 17 17 17 17 17 17 17 17 17 17 17
22 21 21 21 20 20 20 20 19 19 19 19 18 18 18 18 18 18 18 18 18 18 18 18 18 18 17 17 17 17 17 17 17 17 17 17 17 17 17 17 17 17 17
21 21 21 21 20 20 20 20 19 19 19 19 18 18 18 18 18 18 18 18 18 18 18 18 18 18 17 17 17 17 17 17 17 17 18 18 17 17 17 17 17 17 17
21 21 21 21 20 20 20 19 19 19 19 19 18 18 18 18 18 18 18 18 18 18 18 18 18 18 17 17 17 17 17 17 17 17 17 17 17 17 17 17 17 17 17
20 20 21 20 20 20 20 19 19 19 19 19 19 18 18 18 18 18 18 18 18 18 18 18 18 18 17 17 17 17 18 18 18 17 17 17 17 17 17 17 17 17 17
21 20 20 20 20 20 20 19 19 19 19 19 18 18 18 18 18 18 18 18 18 18 18 18 18 18 18 17 17 17 18 18 18 18 18 18 17 17 17 17 17 17 17
20 20 20 20 20 20 20 20 19 19 19 18 18 18 18 18 18 18 18 18 18 18 18 18 18 18 18 17 17 17 18 18 18 18 18 17 17 17 17 17 17 17 17
20 20 20 20 20 20 19 19 19 19 19 19 18 18 18 18 18 18 18 18 18 18 18 18 18 18 17 17 17 17 17 18 18 18 18 18 17 17 17 17 17 17 17
20 20 20 20 19 19 19 19 19 19 19 18 18 18 18 18 18 18 18 18 18 18 18 17 17 17 17 17 17 17 17 17 17 18 18 17 17 17 17 17 17 17 17
20 20 20 19 19 19 19 19 19 19 19 18 18 18 18 18 18 18 18 18 18 17 17 17 17 17 17 17 17 17 17 17 17 17 17 17 17 17 17 17 17 17 17
20 20 20 19 19 19 19 19 18 19 19 18 18 18 18 18 18 18 18 18 17 17 17 17 17 17 17 17 17 17 17 17 17 17 17 17 17 17 17 17 17 17 17
20 20 19 19 19 19 18 18 18 18 18 18 18 18 18 18 18 18 18 17 17 17 17 17 17 17 17 17 17 17 17 17 17 17 17 17 17 17 17 17 17 17 16
20 20 19 19 19 19 18 18 18 18 18 18 18 18 18 18 18 18 18 17 17 17 17 17 17 17 17 17 17 17 17 17 17 17 17 17 17 17 17 17 17 17 16
20 19 19 19 18 18 18 18 18 18 18 18 18 18 18 18 18 18 18 17 17 17 17 17 17 17 17 17 17 17 17 17 17 17 17 17 17 17 17 17 16 16 16
20 19 19 19 18 18 18 18 18 18 18 18 18 18 18 18 18 18 18 17 17 17 17 17 17 17 17 17 17 17 17 17 17 17 17 17 17 17 17 17 17 16 16
20 19 19 19 18 18 18 18 18 18 17 17 18 18 18 18 18 18 17 17 17 17 17 17 17 17 17 17 17 17 17 17 17 17 17 17 17 17 17 17 17 17 16
20 19 19 19 18 18 18 18 18 18 18 18 18 18 18 17 17 17 17 17 17 17 17 17 17 17 17 17 17 17 17 17 17 17 17 17 17 17 17 17 17 17 17
19 19 19 18 18 18 18 18 18 18 18 18 18 17 17 17 17 17 17 17 17 17 16 16 16 16 16 17 17 17 17 17 17 17 17 17 17 17 17 17 17 17 17
19 19 18 18 18 18 18 18 18 18 18 17 17 17 17 17 17 17 17 17 17 16 16 16 16 16 16 16 17 17 17 17 17 17 17 17 17 17 17 17 17 17 17
Wind_Speed
11 15 21 21 21 21 20 20 19 18 18 18 18 18 18 18 18 17 17 16 15 15 14 14 15 15 15 16 17 17 18 18 18 18 18 17 17 18 18 18 18 16 18
14 18 22 22 21 21 20 20 19 18 18 17 17 17 17 17 17 16 16 15 15 15 14 14 15 15 16 16 16 17 17 17 17 17 17 17 17 17 18 17 17 16 18
18 18 21 22 22 21 21 20 19 19 18 17 17 17 16 16 16 16 16 15 15 15 15 15 15 15 15 16 16 16 16 17 17 17 16 15 16 18 17 17 18 17 17
18 18 20 22 22 22 21 20 19 19 18 17 17 16 16 16 16 15 15 15 15 14 14 14 15 15 15 15 15 15 15 15 16 15 13 13 14 17 17 17 18 17 17
15 17 21 23 23 22 21 20 19 18 18 17 16 16 16 15 15 15 15 15 14 14 14 14 14 14 14 14 13 13 12 13 14 14 13 13 14 16 17 17 17 17 16
14 17 22 24 23 22 21 21 20 18 18 17 17 16 16 15 15 15 15 14 14 14 13 13 13 13 13 12 12 11 10 13 13 13 13 13 13 16 17 17 16 16 16
15 15 21 23 23 22 21 20 20 19 18 17 17 16 16 15 15 15 14 14 13 13 13 13 12 12 11 11 10 9 10 13 13 13 12 12 13 15 16 16 15 15 15
17 14 20 23 23 22 21 20 20 19 18 17 16 16 15 15 15 14 14 13 13 13 12 12 11 11 10 9 9 8 10 13 13 12 11 12 14 15 15 15 14 14 14
16 14 14 18 21 22 21 21 20 19 18 17 16 16 16 15 14 14 14 13 13 12 12 11 10 9 9 8 8 8 9 12 13 12 11 11 14 15 15 14 14 14 14
14 13 11 13 16 17 18 20 20 19 18 17 16 16 16 15 14 14 13 12 12 11 11 10 9 8 7 7 7 8 10 11 11 11 10 11 14 14 14 14 14 13 13
14 12 12 11 12 14 15 18 18 18 18 17 15 15 14 12 12 12 12 12 11 10 10 9 8 6 6 6 7 8 9 9 11 9 10 13 14 14 14 13 13 13 12
17 14 12 12 11 12 14 14 14 14 15 13 12 13 12 11 11 11 12 12 11 10 9 8 6 5 4 4 5 7 7 9 10 9 10 14 14 13 13 13 12 12 12
19 17 13 13 12 11 8 11 10 10 11 11 12 12 11 10 8 8 8 8 8 8 6 5 4 3 3 3 4 6 8 7 9 9 11 14 14 13 13 13 12 12 12
17 16 15 14 12 10 10 9 9 8 8 8 11 12 10 6 5 6 6 7 6 5 5 4 3 4 4 4 6 7 8 8 9 10 12 14 14 13 13 12 12 12 12
16 16 16 15 14 11 9 7 8 7 8 10 11 12 11 6 5 6 5 6 6 6 5 4 4 3 3 4 6 8 8 10 10 11 11 14 14 13 13 12 12 12 11
16 16 14 14 13 12 10 8 7 9 10 10 10 11 12 10 7 5 4 5 5 6 7 5 4 3 3 3 4 7 9 11 11 12 11 13 14 14 13 13 12 12 12
17 15 13 13 12 13 11 9 7 8 10 8 9 11 12 11 10 7 4 4 5 7 6 4 3 3 2 2 3 4 7 9 10 11 12 12 13 14 14 13 12 12 12
15 15 14 14 13 12 10 8 5 7 8 8 10 10 11 12 11 8 4 4 5 5 4 3 2 2 2 3 3 3 4 6 8 9 11 12 12 11 13 14 13 13 13
15 15 14 13 13 12 9 7 5 5 6 8 9 9 10 11 11 8 4 4 5 4 2 3 2 3 3 2 2 3 4 4 5 8 8 11 12 12 12 13 14 14 13
13 13 13 12 11 10 9 7 5 5 4 5 7 8 10 11 11 8 4 4 5 3 3 3 3 2 2 3 2 2 2 3 4 5 6 9 11 12 12 11 12 13 14
12 12 12 13 11 10 8 8 7 6 4 4 5 8 10 10 10 8 4 3 3 4 4 5 3 3 2 2 3 3 3 1 2 3 4 4 6 10 11 12 12 11 11
12 12 12 13 14 11 9 7 6 6 4 5 4 6 9 10 9 7 5 5 4 4 4 4 4 3 1 2 3 3 2 3 3 2 3 5 5 7 8 12 12 13 12
12 13 13 13 12 11 10 8 7 5 4 3 4 4 5 8 8 7 7 5 5 4 4 4 4 5 2 1 2 4 3 3 2 3 2 4 5 4 5 8 11 13 14
11 11 11 11 12 11 11 11 11 8 6 6 6 5 5 7 8 8 8 6 5 4 4 4 4 4 4 2 0 1 2 4 3 1 3 2 3 5 6 5 8 12 14
9 10 10 10 10 10 11 12 11 8 6 5 5 7 6 4 6 7 7 6 5 4 4 4 4 4 3 3 2 1 1 1 2 3 1 2 2 3 5 5 6 9 13
7 8 9 10 9 10 11 11 11 10 9 9 8 7 6 4 4 5 7 6 5 4 5 5 5 5 4 3 3 2 2 2 2 3 3 3 3 3 3 4 4 7 11
Wind_Direction
149 152 150 144 139 134 129 126 122 118 115 112 110 108 107 107 107 107 107 106 106 106 106 106 107 107 109 110 111 112 113 115 115 114 114 115 114 113 112 111 108 108 110
148 151 149 146 141 136 133 131 127 125 121 118 115 113 112 111 110 110 110 108 107 107 108 108 109 110 110 111 112 113 114 115 114 114 114 115 115 114 114 113 112 114 112
142 147 147 145 142 139 137 135 133 130 127 124 121 118 116 115 114 113 112 110 109 109 110 110 110 111 110 111 112 114 114 113 112 110 109 108 113 116 117 115 114 114 112
139 143 146 145 143 141 139 138 136 134 131 129 126 122 120 119 118 116 115 114 113 112 112 113 112 112 111 112 112 114 115 115 113 112 109 110 115 117 116 114 114 114 114
137 141 147 145 144 142 142 141 139 137 135 132 129 127 125 123 121 120 118 117 116 116 116 115 114 113 112 113 113 113 115 114 111 109 108 108 115 120 118 117 116 115 115
137 142 147 145 144 144 143 143 141 139 138 135 132 131 129 127 125 123 121 120 120 120 119 117 116 115 114 113 111 109 109 113 110 110 110 111 118 122 121 119 119 118 117
140 143 147 146 146 146 146 145 144 143 141 138 136 134 132 130 128 126 124 123 124 124 123 122 121 120 117 114 109 103 110 119 117 117 113 113 122 124 124 123 121 120 121
144 144 148 149 149 149 148 149 148 147 144 142 141 139 137 134 132 130 128 126 127 128 128 128 127 125 121 115 109 100 111 124 122 124 119 120 125 126 127 126 125 125 124
144 144 147 150 152 152 152 152 151 150 148 147 145 143 141 139 138 136 133 132 132 133 134 134 131 128 126 121 112 103 113 126 125 130 131 130 131 131 131 130 130 130 128
146 149 149 151 152 153 154 155 154 153 153 152 150 149 148 146 144 142 139 139 139 140 140 139 137 133 129 121 112 107 113 123 130 134 134 141 140 137 136 135 134 133 133
154 157 154 152 151 152 154 159 158 157 159 158 158 157 152 148 148 149 150 149 147 147 147 146 145 143 132 119 111 105 110 126 132 135 144 151 148 144 143 141 140 139 139
162 164 163 159 157 158 161 156 158 158 161 160 163 159 154 156 161 162 163 159 157 157 157 160 162 157 134 116 109 109 118 133 137 145 153 156 154 151 148 147 146 146 144
166 166 167 166 165 166 158 158 161 159 162 164 167 166 164 167 172 169 167 168 167 167 169 174 182 182 170 153 137 138 144 146 151 156 162 162 160 156 154 153 153 152 152
164 167 169 171 171 169 162 165 166 164 169 172 177 175 169 166 168 167 171 177 178 181 181 183 196 218 220 192 168 159 152 156 158 158 168 169 166 163 162 161 161 160 159
169 170 174 173 172 166 162 170 171 171 175 177 180 181 172 163 163 168 177 183 192 194 188 191 193 199 190 160 154 153 155 158 164 164 173 176 175 173 171 170 170 169 167
171 171 173 172 170 164 166 170 171 174 173 172 176 179 174 167 164 163 168 180 191 191 186 184 180 172 162 148 142 150 160 164 172 173 177 181 183 182 180 179 178 177 176
169 169 169 169 166 165 167 172 169 167 165 165 171 173 169 165 163 161 158 171 183 179 171 159 152 139 135 127 128 145 157 171 175 180 182 184 189 191 189 188 189 189 187
166 167 171 172 168 165 165 165 158 158 159 161 165 167 165 163 159 153 152 171 176 165 154 138 129 114 116 124 139 157 156 170 177 187 188 190 192 196 199 198 198 198 198
168 166 169 170 168 165 158 151 145 146 154 157 160 159 160 157 153 148 152 167 162 141 135 148 126 136 141 142 158 160 165 168 175 189 195 197 200 203 204 207 207 206 207
166 165 166 162 164 160 152 143 136 136 143 151 155 157 156 155 150 145 148 154 143 130 132 129 128 123 140 154 139 127 180 188 176 185 197 199 205 208 208 210 212 214 216
165 164 164 161 164 162 158 155 154 159 159 159 161 160 155 155 152 145 140 138 136 145 153 147 128 117 97 112 85 42 359 321 202 201 197 193 205 210 208 211 214 215 220
167 166 168 168 169 170 166 162 159 156 163 166 165 157 160 159 156 155 145 148 148 142 139 136 125 121 90 115 123 99 22 342 326 224 196 200 205 204 207 212 213 214 219
169 173 177 175 171 169 159 147 139 125 120 138 156 165 172 163 158 153 151 144 147 149 153 153 140 135 135 76 134 142 150 219 285 318 240 212 201 200 210 212 212 217 220
177 173 174 174 171 167 160 159 159 161 169 180 173 172 172 165 157 153 150 146 149 149 154 159 145 140 136 129 74 148 172 161 157 280 316 271 222 216 213 214 213 216 218
173 174 173 170 170 169 167 166 166 167 170 160 156 161 166 163 158 154 149 142 145 147 152 145 132 128 133 143 146 139 114 114 130 145 240 294 289 248 224 219 216 215 215
165 167 167 169 173 172 170 169 169 169 165 158 163 167 168 163 160 161 149 142 143 144 150 145 137 133 131 130 132 132 146 160 189 163 189 233 249 267 243 228 218 217 216
Height
1519 1521 1524 1525 1527 1528 1529 1530 1531 1532 1534 1534 1535 1536 1537 1538 1539 1540 1540 1541 1542 1542 1542 1543 1543 1543 1544 1545 1546 1546 1547 1548 1548 1549 1550 1550 1551 1552 1553 1554 1554 1555 1556
1516 1520 1524 1526 1527 1529 1530 1531 1532 1533 1534 1535 1536 1537 1538 1539 1540 1541 1542 1542 1543 1543 1544 1544 1544 1545 1546 1546 1547 1548 1549 1549 1550 1551 1551 1552 1553 1554 1555 1555 1556 1557 1558
1517 1520 1524 1526 1528 1529 1531 1532 1533 1534 1535 1536 1537 1538 1539 1540 1541 1542 1543 1543 1544 1545 1545 1546 1546 1547 1548 1548 1549 1550 1551 1551 1552 1552 1553 1554 1555 1556 1556 1557 1558 1559 1560
1517 1521 1524 1526 1528 1530 1531 1533 1534 1535 1536 1537 1538 1539 1540 1541 1542 1543 1544 1545 1545 1546 1547 1547 1548 1549 1550 1550 1551 1552 1553 1553 1554 1554 1555 1556 1556 1557 1558 1559 1560 1561 1562
1518 1521 1524 1526 1528 1530 1531 1533 1534 1536 1537 1538 1539 1540 1541 1542 1544 1544 1545 1546 1547 1548 1548 1549 1550 1551 1552 1552 1553 1554 1555 1555 1556 1556 1557 1558 1558 1559 1560 1561 1562 1563 1564
1518 1522 1524 1526 1528 1530 1532 1533 1535 1536 1538 1539 1540 1541 1542 1544 1545 1546 1547 1548 1548 1549 1550 1551 1552 1553 1554 1554 1555 1556 1557 1557 1558 1558 1559 1560 1560 1561 1562 1563 1564 1565 1566
1518 1521 1524 1526 1529 1531 1532 1534 1535 1537 1538 1540 1541 1542 1544 1545 1546 1547 1548 1549 1550 1551 1552 1553 1554 1555 1556 1556 1557 1558 1558 1559 1559 1560 1561 1561 1562 1563 1564 1564 1565 1566 1568
1517 1521 1524 1526 1528 1530 1532 1534 1536 1538 1539 1540 1542 1543 1545 1546 1547 1548 1549 1550 1551 1552 1553 1555 1556 1557 1558 1558 1559 1559 1560 1560 1561 1562 1562 1563 1564 1565 1565 1566 1567 1568 1569
1518 1520 1523 1526 1528 1530 1532 1534 1536 1538 1540 1541 1543 1544 1545 1547 1548 1549 1551 1552 1553 1554 1555 1556 1557 1558 1559 1560 1561 1561 1562 1562 1563 1563 1564 1565 1566 1566 1567 1568 1569 1570 1571
1517 1520 1522 1525 1527 1529 1532 1534 1536 1538 1540 1542 1543 1545 1546 1547 1549 1550 1552 1553 1554 1555 1556 1558 1559 1560 1561 1562 1563 1563 1564 1564 1565 1565 1566 1566 1567 1568 1568 1569 1570 1571 1572
1516 1519 1521 1524 1527 1529 1531 1533 1536 1538 1540 1542 1544 1545 1546 1548 1550 1551 1553 1554 1555 1557 1558 1559 1560 1561 1562 1563 1564 1564 1565 1565 1566 1567 1567 1568 1569 1569 1570 1570 1571 1572 1573
1513 1517 1520 1522 1525 1528 1530 1533 1535 1538 1540 1542 1544 1545 1547 1548 1550 1552 1553 1555 1556 1558 1559 1560 1561 1562 1564 1565 1565 1566 1566 1566 1567 1567 1568 1569 1570 1571 1571 1572 1572 1573 1574
1510 1514 1518 1521 1524 1527 1529 1532 1534 1537 1539 1541 1544 1545 1547 1549 1550 1552 1554 1555 1557 1558 1560 1561 1562 1563 1565 1566 1566 1567 1567 1567 1568 1568 1569 1570 1571 1571 1572 1573 1573 1574 1575
1509 1512 1516 1520 1522 1525 1528 1531 1534 1536 1538 1541 1543 1545 1547 1548 1550 1552 1554 1556 1557 1559 1560 1561 1563 1564 1565 1566 1567 1567 1567 1568 1568 1569 1570 1570 1572 1572 1573 1573 1574 1575 1575
1507 1511 1515 1517 1520 1524 1527 1530 1533 1535 1538 1540 1543 1545 1547 1548 1550 1552 1554 1556 1557 1559 1560 1562 1563 1564 1565 1566 1567 1567 1568 1568 1569 1570 1570 1571 1572 1573 1574 1574 1575 1575 1576
1504 1508 1512 1515 1518 1522 1525 1529 1532 1535 1537 1539 1542 1545 1546 1548 1550 1552 1554 1556 1557 1559 1560 1561 1563 1564 1565 1566 1567 1567 1568 1569 1570 1570 1571 1571 1572 1573 1574 1575 1575 1576 1576
1501 1505 1509 1512 1516 1520 1524 1528 1531 1533 1536 1538 1541 1544 1546 1548 1550 1552 1553 1555 1557 1558 1560 1561 1563 1564 1565 1566 1567 1568 1568 1569 1570 1571 1571 1572 1572 1573 1574 1575 1575 1576 1576
1499 1502 1507 1510 1514 1518 1523 1526 1529 1532 1535 1537 1540 1543 1545 1548 1549 1551 1553 1555 1556 1558 1559 1560 1562 1563 1565 1566 1567 1568 1568 1569 1569 1570 1571 1572 1572 1573 1574 1574 1575 1576 1576
1496 1500 1503 1507 1512 1516 1521 1525 1528 1531 1533 1536 1539 1542 1544 1546 1548 1550 1552 1554 1555 1557 1558 1559 1561 1562 1564 1565 1566 1567 1568 1568 1569 1570 1571 1571 1572 1573 1573 1574 1574 1575 1575
1496 1499 1502 1505 1510 1514 1518 1523 1526 1529 1532 1535 1538 1541 1543 1545 1547 1549 1551 1553 1554 1556 1557 1558 1560 1561 1563 1564 1566 1566 1567 1568 1568 1569 1570 1570 1571 1572 1572 1573 1573 1574 1575
1495 1497 1500 1503 1507 1511 1515 1519 1523 1526 1530 1534 1537 1539 1542 1543 1545 1547 1549 1551 1553 1554 1556 1557 1559 1560 1562 1563 1565 1566 1566 1567 1567 1568 1569 1569 1570 1571 1571 1572 1573 1573 1574
1492 1495 1498 1501 1505 1509 1513 1517 1521 1524 1528 1532 1535 1538 1540 1542 1544 1546 1548 1549 1551 1553 1554 1556 1557 1559 1561 1562 1564 1565 1565 1567 1566 1567 1567 1568 1569 1570 1570 1571 1571 1572 1572
1490 1492 1495 1499 1502 1507 1511 1516 1519 1523 1527 1530 1533 1535 1538 1540 1542 1544 1546 1548 1550 1551 1553 1555 1556 1557 1559 1561 1562 1564 1564 1564 1565 1566 1566 1567 1568 1568 1569 1569 1570 1570 1571
1488 1491 1493 1497 1500 1504 1508 1512 1516 1519 1522 1526 1529 1533 1536 1538 1540 1542 1545 1546 1548 1550 1552 1553 1554 1556 1558 1559 1561 1562 1563 1563 1564 1564 1565 1565 1566 1567 1568 1568 1569 1569 1570
1487 1489 1492 1495 1498 1502 1505 1509 1513 1517 1520 1524 1527 1531 1534 1536 1538 1541 1543 1545 1547 1548 1550 1551 1553 1555 1556 1558 1559 1561 1562 1562 1563 1563 1563 1564 1565 1565 1566 1567 1567 1568 1568
1486 1488 1490 1493 1496 1499 1502 1506 1510 1514 1518 1521 1525 1528 1531 1534 1536 1539 1541 1543 1545 1547 1548 1550 1552 1553 1555 1557 1558 1559 1560 1561 1561 1562 1562 1563 1563 1564 1565 1565 1565 1566 1566